Location: Centerville
(32.8776°N, 96.6203°W)
Time: 04:54:28
(UTC+00:00)

Cosmos 2322 - Pass Details

Date: 17 June 2021
Orbit: 839 x 856 km, 71.0° (Epoch: 29 July)

Event Time Altitude Azimuth Distance (km) Brightness Sun altitude
Exits shadow 04:50:26 38° 253° (WSW) 1,266 4.6 -29.2°
Maximum altitude 04:51:58 47° 294° (WNW) 1,104 4.5 -29.3°
Drops below altitude 10° 04:57:23 10° 8° (N) 2,460 6.8 -29.8°
Sets 04:59:56 0° 14° (NNE) 3,399 7.6 -30.0°
